FW2998 Weather Reports


time (UTC)temp
C
wind
direction
speed
KPH
gust
KPH
rain 1hr
cm
rain 24hr
cm
rain mn
cm
humidity
%
barometer
mb
20260901020043 26 0 0.0 0.0 0.00 0.00 0.00 79 1019.4
20260901015524 26 0 0.0 0.0 0.00 0.00 0.00 79 1019.3
20260901015025 27 0 0.0 0.0 0.00 0.00 0.00 78 1019.3
20260901014551 27 0 0.0 0.0 0.00 0.00 0.00 78 1019.3
20260901014024 27 0 0.0 0.0 0.00 0.00 0.00 77 1019.2
20260901013524 27 0 0.0 0.0 0.00 0.00 0.00 77 1019.0
20260901013050 27 0 0.0 0.0 0.00 0.00 0.00 77 1018.8
20260901012524 27 0 0.0 0.0 0.00 0.00 0.00 76 1018.8
20260901012021 27 0 0.0 0.0 0.00 0.00 0.00 76 1018.7
20260901011543 27 0 0.0 0.0 0.00 0.00 0.00 76 1018.6
20260901011025 27 0 0.0 0.0 0.00 0.00 0.00 75 1018.4
20260901010525 27 0 0.0 0.0 0.00 0.00 0.00 74 1018.3
20260901010046 27 0 0.0 0.0 0.00 0.00 0.00 73 1018.3
20260901005523 28 0 0.0 0.0 0.00 0.00 0.00 73 1018.3
20260901005027 28 0 0.0 0.0 0.00 0.00 0.00 73 1018.2
20260901004547 28 0 0.0 0.0 0.00 0.00 0.00 72 1018.3
20260901004024 28 0 0.0 0.0 0.00 0.00 0.00 71 1018.2
20260901003522 28 0 0.0 0.0 0.00 0.00 0.00 71 1018.1
20260901003043 28 0 0.0 0.0 0.00 0.00 0.00 71 1018.1
20260901002524 28 0 0.0 0.0 0.00 0.00 0.00 70 1018.1
20260901002022 29 0 0.0 0.0 0.00 0.00 0.00 69 1018.1
20260901001546 29 0 0.0 0.0 0.00 0.00 0.00 69 1018.1
20260901001020 29 0 0.0 0.0 0.00 0.00 0.00 68 1018.1
20260901000525 30 0 0.0 0.0 0.00 0.00 0.00 68 1018.1
20260901000045 30 0 0.0 0.0 0.00 0.00 0.00 67 1018.1
20260831235525 30 0 0.0 0.0 0.00 0.00 0.00 67 1018.0
20260831235026 30 0 0.0 0.0 0.00 0.00 0.00 67 1018.1
20260831234550 30 0 0.0 0.0 0.00 0.00 0.00 66 1018.0
20260831234025 31 0 0.0 0.0 0.00 0.00 0.00 65 1018.0
20260831233522 31 0 0.0 0.0 0.00 0.00 0.00 64 1017.9
20260831233047 31 0 0.0 0.0 0.00 0.00 0.00 63 1018.0
20260831232524 31 0 0.0 0.0 0.00 0.00 0.00 62 1017.9
20260831232025 32 0 0.0 0.0 0.00 0.00 0.00 62 1018.0
20260831231544 32 0 0.0 0.0 0.00 0.00 0.00 61 1018.0
20260831231030 32 0 0.0 0.0 0.00 0.00 0.00 59 1018.0
20260831230524 32 0 0.0 0.0 0.00 0.00 0.00 59 1018.1
20260831230044 32 0 0.0 0.0 0.00 0.00 0.00 58 1018.2
20260831225522 33 0 0.0 0.0 0.00 0.00 0.00 58 1018.2
20260831225024 33 0 0.0 0.0 0.00 0.00 0.00 57 1018.2
20260831224542 33 0 0.0 0.0 0.00 0.00 0.00 56 1018.1
20260831224028 33 0 0.0 0.0 0.00 0.00 0.00 56 1018.2
20260831223524 33 0 0.0 0.0 0.00 0.00 0.00 55 1018.1
20260831223053 34 0 0.0 0.0 0.00 0.00 0.00 55 1018.2
20260831222526 34 0 0.0 0.0 0.00 0.00 0.00 56 1018.1
20260831222024 34 0 0.0 0.0 0.00 0.00 0.00 54 1018.1
20260831221543 34 0 0.0 0.0 0.00 0.00 0.00 53 1018.2
20260831221025 34 0 0.0 0.0 0.00 0.00 0.00 55 1018.2
20260831220525 34 0 0.0 0.0 0.00 0.00 0.00 53 1018.2
20260831220046 35 0 0.0 0.0 0.00 0.00 0.00 54 1018.2
20260831215527 35 0 0.0 0.0 0.00 0.00 0.00 53 1018.1
20260831215024 35 0 0.0 0.0 0.00 0.00 0.00 51 1018.2
20260831214557 35 0 0.0 0.0 0.00 0.00 0.00 51 1018.2
20260831214023 35 0 0.0 0.0 0.00 0.00 0.00 50 1018.3
20260831213525 35 0 0.0 0.0 0.00 0.00 0.00 49 1018.3
20260831213043 35 0 0.0 0.0 0.00 0.00 0.00 51 1018.2
20260831212524 35 0 0.0 0.0 0.00 0.00 0.00 51 1018.2
20260831212023 35 0 0.0 0.0 0.00 0.00 0.00 51 1018.0
20260831211546 35 0 0.0 0.0 0.00 0.00 0.00 51 1018.1
20260831211024 35 0 0.0 0.0 0.00 0.00 0.00 51 1018.1
20260831210525 35 0 0.0 0.0 0.00 0.00 0.00 51 1018.1
20260831210041 34 0 0.0 0.0 0.00 0.00 0.00 52 1018.2
20260831205523 34 0 0.0 0.0 0.00 0.00 0.00 52 1018.1
20260831205023 34 0 0.0 0.0 0.00 0.00 0.00 54 1018.2
20260831204543 34 0 0.0 0.0 0.00 0.00 0.00 53 1018.3
20260831204023 34 0 0.0 0.0 0.00 0.00 0.00 51 1018.3
20260831203522 35 0 0.0 0.0 0.00 0.00 0.00 51 1018.4
20260831203041 35 0 0.0 0.0 0.00 0.00 0.00 53 1018.4
20260831202524 35 0 0.0 0.0 0.00 0.00 0.00 54 1018.5
20260831202023 35 0 0.0 0.0 0.00 0.00 0.00 52 1018.5
20260831201546 35 0 0.0 0.0 0.00 0.00 0.00 51 1018.5
20260831201038 35 0 0.0 0.0 0.00 0.00 0.00 53 1018.7
20260831200524 34 0 0.0 0.0 0.00 0.00 0.00 53 1018.6
20260831200044 33 0 0.0 0.0 0.00 0.00 0.00 56 1018.7
20260831195521 33 0 0.0 0.0 0.00 0.00 0.00 59 1018.8
20260831195024 33 0 0.0 0.0 0.00 0.00 0.00 59 1018.9
20260831194545 33 0 0.0 0.0 0.00 0.00 0.00 58 1019.0
20260831194024 33 0 0.0 0.0 0.00 0.00 0.00 62 1019.0
20260831193525 32 0 0.0 0.0 0.00 0.00 0.00 60 1019.0
20260831193112 32 0 0.0 0.0 0.00 0.00 0.00 58 1019.1
20260831192523 32 0 0.0 0.0 0.00 0.00 0.00 61 1019.1
20260831192026 32 0 0.0 0.0 0.00 0.00 0.00 62 1019.1
20260831191544 32 0 0.0 0.0 0.00 0.00 0.00 64 1019.2
20260831191024 32 0 0.0 0.0 0.00 0.00 0.00 61 1019.3
20260831190523 32 0 0.0 0.0 0.00 0.00 0.00 59 1019.4
20260831190048 33 0 0.0 0.0 0.00 0.00 0.00 61 1019.5
20260831185525 32 0 0.0 0.0 0.00 0.00 0.00 59 1019.4
20260831185025 32 0 0.0 0.0 0.00 0.00 0.00 64 1019.6
20260831184542 32 0 0.0 0.0 0.00 0.00 0.00 61 1019.6
20260831184022 32 0 0.0 0.0 0.00 0.00 0.00 65 1019.7
20260831183524 31 0 0.0 0.0 0.00 0.00 0.00 63 1019.8
20260831183054 31 0 0.0 0.0 0.00 0.00 0.00 65 1019.9
20260831182527 32 0 0.0 0.0 0.00 0.00 0.00 63 1019.9
20260831182025 32 0 0.0 0.0 0.00 0.00 0.00 62 1020.0
20260831181552 32 0 0.0 0.0 0.00 0.00 0.00 64 1020.0
20260831181026 31 0 0.0 0.0 0.00 0.00 0.00 64 1020.0
20260831180525 31 0 0.0 0.0 0.00 0.00 0.00 63 1020.0
20260831180043 32 0 0.0 0.0 0.00 0.00 0.00 64 1020.1
20260831175525 32 0 0.0 0.0 0.00 0.00 0.00 62 1020.1
20260831175026 31 0 0.0 0.0 0.00 0.00 0.00 63 1020.2
20260831174543 31 0 0.0 0.0 0.00 0.00 0.00 65 1020.2
20260831174025 31 0 0.0 0.0 0.00 0.00 0.00 63 1020.3
20260831173525 31 0 0.0 0.0 0.00 0.00 0.00 66 1020.5
20260831173047 31 0 0.0 0.0 0.00 0.00 0.00 64 1020.5
20260831172524 31 0 0.0 0.0 0.00 0.00 0.00 64 1020.5
20260831172024 31 0 0.0 0.0 0.00 0.00 0.00 65 1020.7
20260831171542 31 0 0.0 0.0 0.00 0.00 0.00 64 1020.7
20260831171024 31 0 0.0 0.0 0.00 0.00 0.00 65 1020.6
20260831170526 31 0 0.0 0.0 0.00 0.00 0.00 65 1020.7
20260831170045 31 0 0.0 0.0 0.00 0.00 0.00 68 1020.7
20260831165523 31 0 0.0 0.0 0.00 0.00 0.00 68 1020.9
20260831165025 31 0 0.0 0.0 0.00 0.00 0.00 68 1020.9
20260831164602 31 0 0.0 0.0 0.00 0.00 0.00 70 1020.9
20260831164025 31 0 0.0 0.0 0.00 0.00 0.00 67 1021.0
20260831163525 31 0 0.0 0.0 0.00 0.00 0.00 67 1020.9
20260831163044 30 0 0.0 0.0 0.00 0.00 0.00 70 1021.0
20260831162525 30 0 0.0 0.0 0.00 0.00 0.00 72 1021.1
20260831162024 30 0 0.0 0.0 0.00 0.00 0.00 72 1021.0
20260831161559 30 0 0.0 0.0 0.00 0.00 0.00 71 1021.2
20260831161025 30 0 0.0 0.0 0.00 0.00 0.00 70 1021.1
20260831160525 30 0 0.0 0.0 0.00 0.00 0.00 72 1021.1
20260831160101 30 0 0.0 0.0 0.00 0.00 0.00 72 1021.1
20260831155524 30 0 0.0 0.0 0.00 0.00 0.00 74 1021.1
20260831155024 30 0 0.0 0.0 0.00 0.00 0.00 70 1021.0
20260831154613 30 0 0.0 0.0 0.00 0.00 0.00 70 1021.0
20260831154026 30 0 0.0 0.0 0.00 0.00 0.00 71 1021.0
20260831153522 30 0 0.0 0.0 0.00 0.00 0.00 73 1021.0
20260831153046 30 0 0.0 0.0 0.00 0.00 0.00 73 1021.0
20260831152530 29 0 0.0 0.0 0.00 0.00 0.00 79 1021.1
20260831152026 28 0 0.0 0.0 0.00 0.00 0.00 75 1021.2
20260831151546 28 0 0.0 0.0 0.00 0.00 0.00 77 1021.2
20260831151026 28 0 0.0 0.0 0.00 0.00 0.00 76 1021.1
20260831150524 28 0 0.0 0.0 0.00 0.00 0.00 75 1021.0
20260831150053 29 0 0.0 0.0 0.00 0.00 0.00 76 1021.0
20260831145519 28 0 0.0 0.0 0.00 0.00 0.00 76 1021.0
20260831145021 28 0 0.0 0.0 0.00 0.00 0.00 76 1021.0
20260831144543 30 0 0.0 0.0 0.00 0.00 0.00 73 1021.1
20260831144029 30 0 0.0 0.0 0.00 0.00 0.00 72 1021.1
20260831143526 31 0 0.0 0.0 0.00 0.00 0.00 71 1021.1
20260831143045 31 0 0.0 0.0 0.00 0.00 0.00 73 1021.0
20260831142527 30 0 0.0 0.0 0.00 0.00 0.00 75 1021.0
20260831142025 30 0 0.0 0.0 0.00 0.00 0.00 75 1021.0
20260831141546 30 0 0.0 0.0 0.00 0.00 0.00 75 1021.0
20260831141024 30 0 0.0 0.0 0.00 0.00 0.00 79 1021.0
20260831140525 29 0 0.0 0.0 0.00 0.00 0.00 82 1021.0
20260831140044 28 0 0.0 0.0 0.00 0.00 0.00 83 1021.0
20260831135524 28 0 0.0 0.0 0.00 0.00 0.00 83 1021.0
20260831135024 27 0 0.0 0.0 0.00 0.00 0.00 84 1020.9
20260831134552 27 0 0.0 0.0 0.00 0.00 0.00 88 1020.9
20260831134025 27 0 0.0 0.0 0.00 0.00 0.00 92 1020.9
20260831133527 26 0 0.0 0.0 0.00 0.00 0.00 93 1020.9
20260831133046 26 0 0.0 0.0 0.00 0.00 0.00 95 1020.8
20260831132524 26 0 0.0 0.0 0.00 0.00 0.00 96 1020.9
20260831132025 26 0 0.0 0.0 0.00 0.00 0.00 96 1021.1
20260831131555 26 0 0.0 0.0 0.00 0.00 0.00 97 1021.0
20260831131025 25 0 0.0 0.0 0.00 0.00 0.00 97 1021.0
20260831130524 25 0 0.0 0.0 0.00 0.00 0.00 97 1021.0
20260831130047 25 0 0.0 0.0 0.00 0.00 0.00 97 1021.0
20260831125523 25 0 0.0 0.0 0.00 0.00 0.00 97 1020.9
20260831125025 24 0 0.0 0.0 0.00 0.00 0.00 97 1020.9
20260831124544 23 0 0.0 0.0 0.00 0.00 0.00 98 1020.9
20260831124025 23 0 0.0 0.0 0.00 0.00 0.00 97 1020.8
20260831123526 22 0 0.0 0.0 0.00 0.00 0.00 97 1020.7
20260831123046 22 0 0.0 0.0 0.00 0.00 0.00 96 1020.7
20260831122526 22 0 0.0 0.0 0.00 0.00 0.00 96 1020.7
20260831122025 22 0 0.0 0.0 0.00 0.00 0.00 96 1020.7
20260831121546 22 0 0.0 0.0 0.00 0.00 0.00 96 1020.6
20260831121024 22 0 0.0 0.0 0.00 0.00 0.00 96 1020.6
20260831120520 22 0 0.0 0.0 0.00 0.00 0.00 96 1020.6
20260831120043 22 0 0.0 0.0 0.00 0.00 0.00 95 1020.6
20260831115528 21 0 0.0 0.0 0.00 0.00 0.00 95 1020.5
20260831115025 21 0 0.0 0.0 0.00 0.00 0.00 95 1020.6
20260831114544 21 0 0.0 0.0 0.00 0.00 0.00 95 1020.6
20260831114025 21 0 0.0 0.0 0.00 0.00 0.00 95 1020.7
20260831113524 21 0 0.0 0.0 0.00 0.00 0.00 95 1020.6
20260831113046 21 0 0.0 0.0 0.00 0.00 0.00 95 1020.7
20260831112524 21 0 0.0 0.0 0.00 0.00 0.00 95 1020.7
20260831112024 21 0 0.0 0.0 0.00 0.00 0.00 95 1020.6
20260831111551 21 0 0.0 0.0 0.00 0.00 0.00 95 1020.6
20260831111024 21 0 0.0 0.0 0.00 0.00 0.00 95 1020.5
20260831110523 21 0 0.0 0.0 0.00 0.00 0.00 95 1020.4
20260831110044 21 0 0.0 0.0 0.00 0.00 0.00 95 1020.3
20260831105523 21 0 0.0 0.0 0.00 0.00 0.00 95 1020.3
20260831105024 21 0 0.0 0.0 0.00 0.00 0.00 94 1020.2
20260831104540 21 0 0.0 0.0 0.00 0.00 0.00 94 1020.3
20260831104026 21 0 0.0 0.0 0.00 0.00 0.00 94 1020.2
20260831103523 21 0 0.0 0.0 0.00 0.00 0.00 94 1020.2
20260831103044 21 0 0.0 0.0 0.00 0.00 0.00 94 1020.2
20260831102518 21 0 0.0 0.0 0.00 0.00 0.00 94 1020.2
20260831102025 21 0 0.0 0.0 0.00 0.00 0.00 94 1020.2
20260831101546 21 0 0.0 0.0 0.00 0.00 0.00 94 1020.2
20260831101023 22 0 0.0 0.0 0.00 0.00 0.00 94 1020.1
20260831100523 22 0 0.0 0.0 0.00 0.00 0.00 94 1020.2
20260831100103 22 0 0.0 0.0 0.00 0.00 0.00 94 1020.3
20260831095525 22 0 0.0 0.0 0.00 0.00 0.00 94 1020.2
20260831095028 22 0 0.0 0.0 0.00 0.00 0.00 94 1020.3
20260831094547 22 0 0.0 0.0 0.00 0.00 0.00 94 1020.4
20260831094025 22 0 0.0 0.0 0.00 0.00 0.00 94 1020.3
20260831093525 22 0 0.0 0.0 0.00 0.00 0.00 94 1020.4
20260831093052 22 0 0.0 0.0 0.00 0.00 0.00 94 1020.4
20260831092523 22 0 0.0 0.0 0.00 0.00 0.00 94 1020.4
20260831092024 22 0 0.0 0.0 0.00 0.00 0.00 93 1020.2
20260831091543 22 0 0.0 0.0 0.00 0.00 0.00 93 1020.1
20260831091029 22 0 0.0 0.0 0.00 0.00 0.00 93 1020.2
20260831090521 22 0 0.0 0.0 0.00 0.00 0.00 93 1020.2
20260831090052 22 0 0.0 0.0 0.00 0.00 0.00 93 1020.3
20260831085524 22 0 0.0 0.0 0.00 0.00 0.00 93 1020.1
20260831085025 22 0 0.0 0.0 0.00 0.00 0.00 93 1020.1
20260831084544 22 0 0.0 0.0 0.00 0.00 0.00 93 1020.1
20260831084021 22 0 0.0 0.0 0.00 0.00 0.00 93 1020.0
20260831083518 22 0 0.0 0.0 0.00 0.00 0.00 93 1020.1
20260831083102 22 0 0.0 0.0 0.00 0.00 0.00 93 1020.0
20260831082524 22 0 0.0 0.0 0.00 0.00 0.00 93 1019.9
20260831082023 22 0 0.0 0.0 0.00 0.00 0.00 93 1019.9
20260831081554 22 0 0.0 0.0 0.00 0.00 0.00 93 1019.9
20260831081027 22 0 0.0 0.0 0.00 0.00 0.00 93 1019.9
20260831080523 22 0 0.0 0.0 0.00 0.00 0.00 93 1019.8
20260831080114 22 0 0.0 0.0 0.00 0.00 0.00 93 1019.8
20260831075525 22 0 0.0 0.0 0.00 0.00 0.00 93 1019.9
20260831075024 22 0 0.0 0.0 0.00 0.00 0.00 93 1019.8
20260831074545 22 0 0.0 0.0 0.00 0.00 0.00 93 1019.7
20260831074019 22 0 0.0 0.0 0.00 0.00 0.00 93 1019.8
20260831073523 22 0 0.0 0.0 0.00 0.00 0.00 93 1019.8
20260831073051 22 0 0.0 0.0 0.00 0.00 0.00 93 1019.7
20260831072525 22 0 0.0 0.0 0.00 0.00 0.00 93 1019.8
20260831072025 22 0 0.0 0.0 0.00 0.00 0.00 93 1019.9
20260831071546 22 0 0.0 0.0 0.00 0.00 0.00 93 1019.8
20260831071024 22 0 0.0 0.0 0.00 0.00 0.00 93 1019.8
20260831070524 22 0 0.0 0.0 0.00 0.00 0.00 93 1019.9
20260831070051 22 0 0.0 0.0 0.00 0.00 0.00 93 1020.0
20260831065526 22 0 0.0 0.0 0.00 0.00 0.00 93 1020.0
20260831065022 23 0 0.0 0.0 0.00 0.00 0.00 93 1020.1
20260831064544 22 0 0.0 0.0 0.00 0.00 0.00 93 1020.1
20260831064023 22 0 0.0 0.0 0.00 0.00 0.00 92 1020.1
20260831063522 23 0 0.0 0.0 0.00 0.00 0.00 92 1020.2
20260831063046 23 0 0.0 0.0 0.00 0.00 0.00 92 1020.3
20260831062524 23 0 0.0 0.0 0.00 0.00 0.00 92 1020.3
20260831062024 23 0 0.0 0.0 0.00 0.00 0.00 92 1020.3
20260831061544 23 0 0.0 0.0 0.00 0.00 0.00 92 1020.2
20260831061024 23 0 0.0 0.0 0.00 0.00 0.00 92 1020.2
20260831060525 23 0 0.0 0.0 0.00 0.00 0.00 92 1020.3
20260831060053 23 0 0.0 0.0 0.00 0.00 0.00 92 1020.3
20260831055523 23 0 0.0 0.0 0.00 0.00 0.00 92 1020.3
20260831055024 23 0 0.0 0.0 0.00 0.00 0.00 92 1020.3
20260831054544 23 0 0.0 0.0 0.00 0.00 0.00 92 1020.3
20260831054025 23 0 0.0 0.0 0.00 0.00 0.00 92 1020.3
20260831053525 23 0 0.0 0.0 0.00 0.00 0.00 92 1020.3
20260831053123 23 0 0.0 0.0 0.00 0.00 0.00 92 1020.5
20260831052525 23 0 0.0 0.0 0.00 0.00 0.00 92 1020.5
20260831052023 23 0 0.0 0.0 0.00 0.00 0.00 92 1020.5
20260831051544 23 0 0.0 0.0 0.00 0.00 0.00 92 1020.5
20260831051021 23 0 0.0 0.0 0.00 0.00 0.00 91 1020.6
20260831050525 23 0 0.0 0.0 0.00 0.00 0.00 91 1020.6
20260831050045 23 0 0.0 0.0 0.00 0.00 0.00 91 1020.7
20260831045522 23 0 0.0 0.0 0.00 0.00 0.00 91 1020.6
20260831045028 23 0 0.0 0.0 0.00 0.00 0.00 91 1020.5
20260831044635 23 0 0.0 0.0 0.00 0.00 0.00 91 1020.6
20260831044023 23 0 0.0 0.0 0.00 0.00 0.00 91 1020.6
20260831043524 23 0 0.0 0.0 0.00 0.00 0.00 91 1020.6
20260831043048 23 0 0.0 0.0 0.00 0.00 0.00 91 1020.6
20260831042519 23 0 0.0 0.0 0.00 0.00 0.00 91 1020.6
20260831042019 23 0 0.0 0.0 0.00 0.00 0.00 91 1020.5
20260831041544 24 0 0.0 0.0 0.00 0.00 0.00 91 1020.5
20260831041024 23 0 0.0 0.0 0.00 0.00 0.00 91 1020.5
20260831040524 23 0 0.0 0.0 0.00 0.00 0.00 90 1020.5
20260831040044 24 0 0.0 0.0 0.00 0.00 0.00 90 1020.6
20260831035524 24 0 0.0 0.0 0.00 0.00 0.00 90 1020.6
20260831035024 24 0 0.0 0.0 0.00 0.00 0.00 90 1020.7
20260831034545 24 0 0.0 0.0 0.00 0.00 0.00 90 1020.7
20260831034024 24 0 0.0 0.0 0.00 0.00 0.00 90 1020.7
20260831033523 24 0 0.0 0.0 0.00 0.00 0.00 90 1020.8
20260831033054 24 0 0.0 0.0 0.00 0.00 0.00 90 1020.8
20260831032525 24 0 0.0 0.0 0.00 0.00 0.00 89 1020.8
20260831032025 24 0 0.0 0.0 0.00 0.00 0.00 89 1020.8
20260831031544 24 0 0.0 0.0 0.00 0.00 0.00 89 1020.9
20260831031019 24 0 0.0 0.0 0.00 0.00 0.00 89 1020.7
20260831030525 24 0 0.0 0.0 0.00 0.00 0.00 89 1020.7
20260831030043 24 0 0.0 0.0 0.00 0.00 0.00 89 1020.6
20260831025525 25 0 0.0 0.0 0.00 0.00 0.00 88 1020.6
20260831025026 25 0 0.0 0.0 0.00 0.00 0.00 88 1020.6
20260831024542 25 0 0.0 0.0 0.00 0.00 0.00 88 1020.6
20260831024024 25 0 0.0 0.0 0.00 0.00 0.00 88 1020.5
20260831023518 25 0 0.0 0.0 0.00 0.00 0.00 88 1020.6
20260831023045 25 0 0.0 0.0 0.00 0.00 0.00 88 1020.6
20260831022518 25 0 0.0 0.0 0.00 0.00 0.00 88 1020.6
20260831022025 25 0 0.0 0.0 0.00 0.00 0.00 88 1020.6
20260831021543 25 0 0.0 0.0 0.00 0.00 0.00 87 1020.6
20260831021019 25 0 0.0 0.0 0.00 0.00 0.00 87 1020.5
20260831020523 25 0 0.0 0.0 0.00 0.00 0.00 87 1020.5